User: anonymous   Login
Location: Eyeline Observatory
(43.2182°N, 78.8632°W)
Time: 23:09:46
(UTC-04:00)
Language:

SO-50 - Orbit

View from above orbital plane
View from above orbital plane
View from above satellite
View from above satellite

Ground track
Ground track

The orbit data is extracted from the following two-line orbital elements,

1 27607U 02058C   18114.86648192  .00712698  00000-0  86368-1 0  9991
2 27607  64.5481 252.9885 0056124 338.9123  20.9667 14.79828004825095
Epoch (UTC): 24 April 2018 20:47:44
Eccentricity: 0.0056124
inclination: 64.5481°
perigee height: 590 km
apogee height: 669 km
right ascension of ascending node: 252.9885°
argument of perigee: 338.9123°
revolutions per day: 14.79828004
mean anomaly at epoch: 20.9667°
orbit number at epoch: 82509

The dashed part of the orbit path shows where the satellite is in the earth's shadow,  

DLR